ABS-3A

Last updated on Jan. 23, 2021, 7:15 a.m. UTC

1 40424U 15010A   21022.96552324 -.00000013  00000-0  00000-0 0  9999
2 40424   0.0114  63.3719 0001310 197.2891 206.4920  1.00272473 21645
UTC
Height (km)
Latitude
Longitude
Inclination
Orbital Period
UTC large
Height (km)
Speed (km/s)
/
Latitude / Longitude
Inclination (degrees)
Orbital Period (minutes)
Azimuth
Elevation
Range (km)
Doppler Factor
iOS Compass Heading
iOS Angle

Next 30 passes for location: Hong Kong

Rise time Rise Azimuth (degrees) Set time Set Azimuth (degrees) Duration Max altitude (degrees)

No matching passes for this satellites